Погода в Кучиновке

Украина / Черниговская область     51°43′13″N   31°54′47″E
темп.,
°C
ветер,
м/с
пор.,
м/с
влажн.,
%
обл.,
%
осадки,
мм/ч
давл.,
гПа
погр.,
м
4 марта, чт
чт423:00−1зюз48880 0.0 1020210
02:00−1зюз49861 0.0 1018227
05:00−3юз511930 0.0 1015220
08:00−2юз612930 0.0 1012308
11:00+1юз5109725 0.0 1009393
14:00+3зюз5119850 0.0 1007516
17:00+3зюз4109791 0.0 1006260
20:00+2сз4109696 0.5 1006483
5 марта, пт
пт523:00+1зсз499295 0.1 1007474
02:00−1зсз379584 0.1 1009209
05:00−2сз359640 0.0 1010177
08:00−1с348770 0.0 1011300
11:000с237385 0.0 1013609
14:00+1с336493 0.0 10141038
17:00−1ссз2471100 0.0 1014137
20:00−2ссз3474100 0.0 1017137
6 марта, сб
сб623:00−2сз4973100 0.0 1018497
02:00−3ссз5868100 0.0 1019650
05:00−4ссз48620 0.0 1020762
08:00−3сз58540 0.0 1021852
11:00−1сз475187 0.0 10221367
14:00−1ссз456394 0.1 10211094
17:00−2ссз366173 0.0 1022812
20:00−3зсз256437 0.0 1023170
7 марта, вс
вс723:00−3з48680 0.0 1024375
02:00−4зюз510700 0.0 1022519
05:00−4юз7146236 0.0 1019638
08:00−2зюз9166468 0.0 1016941
11:000зюз111763100 0.0 10121362
14:00+2з101665100 0.0 10101342
17:00+1з81474100 0.0 10091055
20:000з8158095 0.0 1008951
8 марта, пн
пн823:000з9168196 0.0 10071164
02:00−1зсз7137698 0.5 10071186
05:00−3зсз61267100 0.0 10081103
08:00−3зсз7106667 0.0 10111051
11:00−2зсз5760100 0.0 10121102
14:00−1зсз4559100 0.1 10121213
17:00−2зсз3466100 0.1 1012869
20:00−3с2383100 0.3 1014297